TimeCDT,TemperatureF,Dew PointF,Humidity,Sea Level PressureIn,VisibilityMPH,Wind Direction,Wind SpeedMPH,Gust SpeedMPH,PrecipitationIn,Events,Conditions,WindDirDegrees,DateUTC
12:15 AM,64.6,59.0,82,30.00,10.0,Calm,Calm,-,N/A,,Clear,0,2013-07-25 05:15:00
12:35 AM,64.8,58.5,80,30.00,10.0,Calm,Calm,-,N/A,,Clear,0,2013-07-25 05:35:00
12:55 AM,64.4,58.3,80,30.00,10.0,Calm,Calm,-,N/A,,Clear,0,2013-07-25 05:55:00
1:15 AM,63.7,58.1,82,30.00,10.0,North,3.5,-,N/A,,Clear,350,2013-07-25 06:15:00
1:35 AM,63.5,58.5,84,30.00,10.0,North,3.5,-,N/A,,Clear,350,2013-07-25 06:35:00
1:55 AM,63.3,58.5,84,30.00,10.0,Calm,Calm,-,N/A,,Clear,0,2013-07-25 06:55:00
2:15 AM,63.0,58.5,85,30.00,10.0,North,3.5,-,N/A,,Clear,360,2013-07-25 07:15:00
2:35 AM,62.6,59.0,88,30.00,10.0,North,4.6,-,N/A,,Clear,350,2013-07-25 07:35:00
2:55 AM,62.6,59.0,88,30.00,10.0,North,4.6,-,N/A,,Clear,360,2013-07-25 07:55:00
3:15 AM,62.1,59.0,90,30.00,10.0,NNW,4.6,-,N/A,,Clear,340,2013-07-25 08:15:00
3:35 AM,61.9,59.0,90,29.99,10.0,North,3.5,-,N/A,,Clear,360,2013-07-25 08:35:00
3:55 AM,61.3,59.2,93,29.99,10.0,Calm,Calm,-,N/A,,Clear,0,2013-07-25 08:55:00
4:15 AM,61.3,60.3,96,30.00,10.0,North,3.5,-,N/A,,Clear,350,2013-07-25 09:15:00
4:35 AM,61.2,60.1,96,30.01,10.0,Calm,Calm,-,N/A,,Clear,0,2013-07-25 09:35:00
4:55 AM,60.8,60.1,97,30.01,10.0,North,4.6,-,N/A,,Clear,350,2013-07-25 09:55:00
5:15 AM,60.8,59.9,97,30.03,10.0,North,4.6,-,N/A,,Clear,350,2013-07-25 10:15:00
5:35 AM,60.8,59.9,97,30.03,10.0,North,4.6,-,N/A,,Clear,360,2013-07-25 10:35:00
5:55 AM,60.4,59.9,98,30.03,10.0,North,3.5,-,N/A,,Clear,360,2013-07-25 10:55:00
6:15 AM,60.1,59.9,99,30.03,10.0,North,3.5,-,N/A,,Clear,350,2013-07-25 11:15:00
6:35 AM,60.8,60.1,97,30.04,10.0,Calm,Calm,-,N/A,,Clear,0,2013-07-25 11:35:00
6:55 AM,61.5,60.3,96,30.04,10.0,North,5.8,-,N/A,,Clear,350,2013-07-25 11:55:00
7:15 AM,62.4,60.8,94,30.04,10.0,North,4.6,-,N/A,,Clear,350,2013-07-25 12:15:00
7:35 AM,63.5,61.2,92,30.04,10.0,Calm,Calm,-,N/A,,Clear,0,2013-07-25 12:35:00
7:55 AM,64.6,62.1,92,30.05,10.0,NNW,4.6,-,N/A,,Clear,340,2013-07-25 12:55:00
8:15 AM,65.8,62.4,89,30.05,10.0,NNW,4.6,-,N/A,,Clear,330,2013-07-25 13:15:00
8:35 AM,67.5,61.3,81,30.05,10.0,Calm,Calm,-,N/A,,Clear,0,2013-07-25 13:35:00
8:55 AM,68.4,60.8,77,30.06,10.0,Calm,Calm,-,N/A,,Clear,0,2013-07-25 13:55:00
9:15 AM,69.8,61.3,74,30.07,10.0,North,3.5,-,N/A,,Clear,350,2013-07-25 14:15:00
9:35 AM,70.2,61.5,74,30.07,10.0,NNW,3.5,-,N/A,,Clear,340,2013-07-25 14:35:00
9:55 AM,71.8,61.5,70,30.08,10.0,North,6.9,-,N/A,,Clear,10,2013-07-25 14:55:00
10:15 AM,73.0,61.3,67,30.08,10.0,North,3.5,-,N/A,,Clear,10,2013-07-25 15:15:00
10:35 AM,74.3,59.7,60,30.08,10.0,NNW,8.1,-,N/A,,Clear,340,2013-07-25 15:35:00
10:55 AM,74.1,59.4,60,30.08,10.0,North,6.9,-,N/A,,Scattered Clouds,350,2013-07-25 15:55:00
11:15 AM,75.6,59.7,58,30.09,10.0,NW,6.9,-,N/A,,Scattered Clouds,320,2013-07-25 16:15:00
11:35 AM,75.4,59.0,57,30.09,10.0,North,8.1,-,N/A,,Scattered Clouds,10,2013-07-25 16:35:00
11:55 AM,76.3,58.8,55,30.10,10.0,NNW,9.2,-,N/A,,Scattered Clouds,340,2013-07-25 16:55:00
12:15 PM,76.3,58.6,54,30.09,10.0,NE,6.9,-,N/A,,Scattered Clouds,40,2013-07-25 17:15:00
12:35 PM,76.1,58.3,54,30.09,10.0,North,5.8,-,N/A,,Scattered Clouds,350,2013-07-25 17:35:00
12:55 PM,77.2,58.3,52,30.09,10.0,NNW,8.1,-,N/A,,Scattered Clouds,340,2013-07-25 17:55:00
1:15 PM,77.4,57.0,49,30.09,10.0,North,6.9,-,N/A,,Scattered Clouds,360,2013-07-25 18:15:00
1:35 PM,78.1,57.9,50,30.08,10.0,North,4.6,-,N/A,,Scattered Clouds,10,2013-07-25 18:35:00
1:55 PM,78.8,58.5,50,30.08,10.0,North,9.2,-,N/A,,Clear,350,2013-07-25 18:55:00
2:15 PM,78.8,58.5,50,30.08,10.0,North,6.9,-,N/A,,Clear,360,2013-07-25 19:15:00
2:35 PM,79.0,57.0,47,30.08,10.0,North,5.8,-,N/A,,Clear,350,2013-07-25 19:35:00
2:55 PM,79.0,57.4,47,30.07,10.0,Calm,Calm,-,N/A,,Clear,0,2013-07-25 19:55:00
3:15 PM,79.5,57.2,46,30.07,10.0,Calm,Calm,-,N/A,,Scattered Clouds,0,2013-07-25 20:15:00
3:35 PM,79.7,56.7,45,30.07,10.0,North,6.9,-,N/A,,Scattered Clouds,360,2013-07-25 20:35:00
3:55 PM,79.7,57.9,47,30.07,10.0,NNE,5.8,-,N/A,,Clear,20,2013-07-25 20:55:00
4:15 PM,79.7,56.3,44,30.07,10.0,North,4.6,-,N/A,,Clear,360,2013-07-25 21:15:00
4:35 PM,79.9,57.6,46,30.07,10.0,North,4.6,-,N/A,,Scattered Clouds,350,2013-07-25 21:35:00
4:55 PM,79.7,57.0,46,30.07,10.0,NNE,4.6,-,N/A,,Scattered Clouds,20,2013-07-25 21:55:00
5:15 PM,79.7,57.2,46,30.07,10.0,Calm,Calm,-,N/A,,Clear,0,2013-07-25 22:15:00
5:35 PM,79.2,56.7,46,30.07,10.0,NE,4.6,-,N/A,,Scattered Clouds,40,2013-07-25 22:35:00
5:55 PM,79.2,56.5,46,30.06,10.0,North,4.6,-,N/A,,Clear,10,2013-07-25 22:55:00
6:15 PM,78.8,57.0,47,30.06,10.0,North,4.6,-,N/A,,Clear,10,2013-07-25 23:15:00
6:35 PM,78.1,57.9,50,30.06,10.0,North,5.8,-,N/A,,Clear,360,2013-07-25 23:35:00
6:55 PM,77.2,57.0,50,30.06,10.0,North,4.6,-,N/A,,Clear,10,2013-07-25 23:55:00
7:15 PM,76.1,58.6,55,30.06,10.0,NNE,3.5,-,N/A,,Clear,20,2013-07-26 00:15:00
7:35 PM,74.7,59.2,58,30.06,10.0,Calm,Calm,-,N/A,,Clear,0,2013-07-26 00:35:00
7:55 PM,73.4,59.9,63,30.07,10.0,Calm,Calm,-,N/A,,Clear,0,2013-07-26 00:55:00
8:15 PM,71.2,60.4,69,30.07,10.0,Calm,Calm,-,N/A,,Clear,0,2013-07-26 01:15:00
8:35 PM,69.3,61.0,75,30.06,10.0,Calm,Calm,-,N/A,,Clear,0,2013-07-26 01:35:00
8:55 PM,67.5,61.3,81,30.06,10.0,Calm,Calm,-,N/A,,Clear,0,2013-07-26 01:55:00
9:15 PM,67.5,61.0,80,30.06,10.0,Calm,Calm,-,N/A,,Clear,0,2013-07-26 02:15:00
9:35 PM,66.4,61.7,85,30.07,10.0,Calm,Calm,-,N/A,,Clear,0,2013-07-26 02:35:00
9:55 PM,65.8,61.7,86,30.07,10.0,Calm,Calm,-,N/A,,Clear,0,2013-07-26 02:55:00
10:15 PM,65.1,63.1,93,30.07,10.0,Calm,Calm,-,N/A,,Clear,0,2013-07-26 03:15:00
10:35 PM,64.4,63.3,96,30.07,10.0,Calm,Calm,-,N/A,,Clear,0,2013-07-26 03:35:00
10:55 PM,64.4,63.1,96,30.07,10.0,Calm,Calm,-,N/A,,Clear,0,2013-07-26 03:55:00
11:15 PM,63.7,63.3,99,30.08,10.0,Calm,Calm,-,N/A,,Clear,0,2013-07-26 04:15:00
11:35 PM,62.6,62.1,98,30.08,10.0,Calm,Calm,-,N/A,,Clear,0,2013-07-26 04:35:00
11:55 PM,62.6,62.4,99,30.08,10.0,Calm,Calm,-,N/A,,Clear,0,2013-07-26 04:55:00